Weather History for KHZE - February, 2014

Change the Weather History Date:

Wednesday, February 19, 2014

  Actual Average (KN60) Record (KN60)
Temperature  
Mean Temperature 30 °F -  
Max Temperature 42 °F 24 °F 46 °F (2012)
Min Temperature 17 °F 7 °F -20 °F (2013)
Degree Days  
Heating Degree Days 36    
Moisture  
Dew Point 24 °F    
Average Humidity 74    
Maximum Humidity 93    
Minimum Humidity 57    
Precipitation  
Precipitation 0.00 in - - ()
Sea Level Pressure  
Sea Level Pressure 29.52 in    
Wind  
Wind Speed 4 mph (WSW)    
Max Wind Speed 18 mph    
Max Gust Speed 26 mph    
Visibility 10 miles    
Events      
Averages and records for this station are not official NWS values.
T = Trace of Precipitation, MM = Missing Value Source: NWS Daily Summary

Daily Weather History Graph

Daily Weather History Graph

Search for Another Location

Airport or City:

Trip Planner

Search our weather history database for the weather conditions in past years. The results will help you decide how hot, cold, wet, or windy it might be!

Date:

Astronomy

Feb. 19, 2014 Rise Set
Actual Time 7:44 AM CST 6:16 PM CST
Civil Twilight 7:13 AM CST 6:47 PM CST
Nautical Twilight 6:37 AM CST 7:23 PM CST
Astronomical Twilight 6:02 AM CST 7:58 PM CST
Moon 11:34 PM CST (2/19) 9:31 AM CST (2/19)
Length of Visible Light 11h 34m
Length of Day
10h 32m
Waning Gibbous, 79% of the Moon is Illuminated
Feb 19
Waning Gibbous
Feb 22
Last Quarter
Mar 1
New
Mar 8
First Quarter
Mar 16
Full

Hourly Weather History & Observations

Time (CST) Temp. Windchill Dew Point Humidity Pressure Visibility Wind Dir Wind Speed Gust Speed Precip Events Conditions
12:15 AM 23.0 °F - 19.4 °F 86% 29.73 in 10.0 mi Calm Calm - N/A   Clear
12:35 AM 24.8 °F 19.1 °F 21.2 °F 86% 29.73 in 10.0 mi SW 4.6 mph - N/A   Partly Cloudy
12:55 AM 23.0 °F - 19.4 °F 86% 29.72 in 10.0 mi Calm Calm - N/A   Clear
1:15 AM 23.0 °F - 21.2 °F 93% 29.71 in 10.0 mi Calm Calm - N/A   Clear
1:35 AM 24.8 °F 20.5 °F 21.2 °F 86% 29.72 in 10.0 mi SSW 3.5 mph - N/A   Clear
1:55 AM 24.8 °F - 21.2 °F 86% 29.71 in 10.0 mi Calm Calm - N/A   Clear
2:15 AM 24.8 °F 16.9 °F 19.4 °F 80% 29.70 in 10.0 mi WSW 6.9 mph - N/A   Clear
2:35 AM 24.8 °F - 19.4 °F 80% 29.69 in 10.0 mi Calm Calm - N/A   Clear
2:55 AM 24.8 °F - 19.4 °F 80% 29.69 in 10.0 mi Calm Calm - N/A   Clear
3:15 AM 21.2 °F - 17.6 °F 86% 29.68 in 10.0 mi Calm Calm - N/A   Clear
3:35 AM 24.8 °F 20.5 °F 19.4 °F 80% 29.68 in 10.0 mi SW 3.5 mph - N/A   Clear
3:55 AM 19.4 °F - 17.6 °F 93% 29.66 in 10.0 mi Calm Calm - N/A   Partly Cloudy
4:15 AM 17.6 °F 12.3 °F 15.8 °F 93% 29.65 in 10.0 mi SW 3.5 mph - N/A   Clear
4:35 AM 19.4 °F - 15.8 °F 86% 29.63 in 10.0 mi Calm Calm - N/A   Clear
4:55 AM 19.4 °F - 15.8 °F 86% 29.61 in 10.0 mi Calm Calm - N/A   Clear
5:15 AM 21.2 °F - 17.6 °F 86% 29.61 in 10.0 mi Calm Calm - N/A   Clear
5:35 AM 17.6 °F - 14.0 °F 86% 29.60 in 10.0 mi Calm Calm - N/A   Clear
5:55 AM 17.6 °F - 14.0 °F 86% 29.60 in 10.0 mi Calm Calm - N/A   Partly Cloudy
6:15 AM 17.6 °F - 14.0 °F 86% 29.59 in 10.0 mi Calm Calm - N/A   Partly Cloudy
6:35 AM 19.4 °F - 15.8 °F 86% 29.58 in 10.0 mi Calm Calm - N/A   Scattered Clouds
6:55 AM 19.4 °F - 15.8 °F 86% 29.57 in 10.0 mi Calm Calm - N/A   Overcast
7:15 AM 21.2 °F - 17.6 °F 86% 29.55 in 10.0 mi Calm Calm - N/A   Overcast
7:35 AM 23.0 °F - 19.4 °F 86% 29.54 in 10.0 mi Calm Calm - N/A   Overcast
7:55 AM 26.6 °F 22.6 °F 19.4 °F 74% 29.53 in 10.0 mi SW 3.5 mph - N/A   Overcast
8:15 AM 30.2 °F 21.9 °F 21.2 °F 69% 29.51 in 10.0 mi SSW 9.2 mph - N/A   Overcast
8:35 AM 30.2 °F 22.6 °F 23.0 °F 75% 29.51 in 10.0 mi SSW 8.1 mph - N/A   Overcast
8:55 AM 32.0 °F 23.0 °F 23.0 °F 69% 29.50 in 10.0 mi South 11.5 mph - N/A   Overcast
9:15 AM 32.0 °F 28.7 °F 23.0 °F 69% 29.49 in 10.0 mi South 3.5 mph - N/A   Overcast
9:35 AM 32.0 °F 28.7 °F 23.0 °F 69% 29.48 in 10.0 mi SSE 3.5 mph - N/A   Overcast
9:55 AM 32.0 °F 27.5 °F 23.0 °F 69% 29.46 in 10.0 mi South 4.6 mph - N/A   Overcast
10:15 AM 33.8 °F 27.7 °F 23.0 °F 65% 29.44 in 10.0 mi South 6.9 mph - N/A   Scattered Clouds
10:35 AM 35.6 °F 32.8 °F 23.0 °F 60% 29.45 in 10.0 mi NNE 3.5 mph - N/A   Mostly Cloudy
10:55 AM 35.6 °F 29.9 °F 23.0 °F 60% 29.45 in 10.0 mi SW 6.9 mph - N/A   Mostly Cloudy
11:15 AM 35.6 °F 28.6 °F 23.0 °F 60% 29.45 in 10.0 mi South 9.2 mph - N/A   Scattered Clouds
11:35 AM 37.4 °F 28.9 °F 24.8 °F 60% 29.44 in 10.0 mi SSW 13.8 mph 20.7 mph N/A   Partly Cloudy
11:55 AM 39.2 °F 33.6 °F 26.6 °F 61% 29.43 in 10.0 mi SW 8.1 mph - N/A   Clear
12:15 PM 41.0 °F 36.4 °F 26.6 °F 57% 29.42 in 10.0 mi SW 6.9 mph - N/A   Partly Cloudy
12:35 PM 41.0 °F 36.4 °F 26.6 °F 57% 29.41 in 10.0 mi SW 6.9 mph - N/A   Scattered Clouds
12:55 PM 42.8 °F 38.6 °F 28.4 °F 57% 29.39 in 10.0 mi WSW 6.9 mph - N/A   Partly Cloudy
1:15 PM 41.0 °F 33.9 °F 32.0 °F 70% 29.39 in 10.0 mi WSW 12.7 mph - N/A   Clear
1:35 PM 41.0 °F 34.3 °F 32.0 °F 70% 29.39 in 10.0 mi WSW 11.5 mph - N/A   Clear
1:55 PM 41.0 °F 34.7 °F 32.0 °F 70% 29.39 in 10.0 mi WSW 10.4 mph - N/A   Clear
2:15 PM 41.0 °F 34.7 °F 32.0 °F 70% 29.40 in 10.0 mi West 10.4 mph - N/A   Clear
2:35 PM 41.0 °F 33.5 °F 32.0 °F 70% 29.41 in 10.0 mi West 13.8 mph - N/A   Clear
2:55 PM 41.0 °F 33.1 °F 28.4 °F 61% 29.42 in 10.0 mi West 15.0 mph 26.5 mph N/A   Clear
3:15 PM 41.0 °F 32.2 °F 30.2 °F 65% 29.42 in 10.0 mi West 18.4 mph 23.0 mph N/A   Clear
3:35 PM 39.2 °F 30.5 °F 30.2 °F 70% 29.43 in 10.0 mi West 16.1 mph 24.2 mph N/A   Mostly Cloudy
3:55 PM 39.2 °F 32.0 °F 30.2 °F 70% 29.43 in 10.0 mi West 11.5 mph - N/A   Overcast
4:15 PM 39.2 °F 33.0 °F 30.2 °F 70% 29.44 in 10.0 mi West 9.2 mph - N/A   Overcast
4:35 PM 39.2 °F 33.0 °F 30.2 °F 70% 29.44 in 10.0 mi WSW 9.2 mph - N/A   Overcast
4:55 PM 37.4 °F 30.8 °F 32.0 °F 81% 29.45 in 10.0 mi WSW 9.2 mph - N/A   Overcast
5:15 PM 37.4 °F 31.4 °F 30.2 °F 75% 29.46 in 10.0 mi West 8.1 mph - N/A   Overcast
5:35 PM 39.2 °F 33.6 °F 28.4 °F 65% 29.46 in 10.0 mi West 8.1 mph - N/A   Overcast
5:55 PM 39.2 °F 32.5 °F 26.6 °F 61% 29.47 in 10.0 mi West 10.4 mph - N/A   Overcast
6:15 PM 37.4 °F 31.4 °F 26.6 °F 65% 29.47 in 10.0 mi West 8.1 mph - N/A   Overcast
6:35 PM 35.6 °F 30.7 °F 24.8 °F 65% 29.48 in 10.0 mi West 5.8 mph - N/A   Overcast
6:55 PM 35.6 °F 29.9 °F 26.6 °F 70% 29.49 in 10.0 mi WSW 6.9 mph - N/A   Overcast
7:15 PM 35.6 °F 29.2 °F 24.8 °F 65% 29.48 in 10.0 mi SW 8.1 mph - N/A   Overcast
7:35 PM 35.6 °F 29.2 °F 24.8 °F 65% 29.49 in 10.0 mi WSW 8.1 mph - N/A   Overcast
7:55 PM 35.6 °F 30.7 °F 24.8 °F 65% 29.50 in 10.0 mi WSW 5.8 mph - N/A   Overcast
8:15 PM 33.8 °F 28.6 °F 24.8 °F 70% 29.50 in 10.0 mi SW 5.8 mph - N/A   Overcast
8:35 PM 33.8 °F 28.6 °F 23.0 °F 65% 29.50 in 10.0 mi SW 5.8 mph - N/A   Mostly Cloudy
8:55 PM 32.0 °F - 24.8 °F 75% 29.49 in 10.0 mi Calm Calm - N/A   Scattered Clouds
9:15 PM 33.8 °F 25.8 °F 24.8 °F 70% 29.50 in 10.0 mi SW 10.4 mph - N/A   Scattered Clouds
9:35 PM 33.8 °F 26.4 °F 24.8 °F 70% 29.50 in 10.0 mi SW 9.2 mph - N/A   Clear
9:55 PM 32.0 °F 23.6 °F 24.8 °F 75% 29.51 in 10.0 mi WSW 10.4 mph - N/A   Partly Cloudy
10:35 PM 32.0 °F 24.2 °F 24.8 °F 75% 29.53 in 10.0 mi West 9.2 mph - N/A   Clear
10:55 PM 32.0 °F 22.5 °F 24.8 °F 75% 29.53 in 10.0 mi West 12.7 mph - N/A   Clear
11:15 PM 32.0 °F 23.6 °F 24.8 °F 75% 29.53 in 10.0 mi WSW 10.4 mph - N/A   Scattered Clouds
11:35 PM 32.0 °F 23.0 °F 24.8 °F 75% 29.53 in 10.0 mi WSW 11.5 mph - N/A   Overcast
11:55 PM 32.0 °F 24.2 °F 24.8 °F 75% 29.53 in 10.0 mi WSW 9.2 mph - N/A   Overcast